Darstellungsparameter: Aktuell verwendete Einstellungen:
Skalierung der Graphiken ... ?
xyx+y,   Skalierungsfaktor:      Skalierung: Modus: x, Faktor: 1
Darstellungszeitraum ... ?
Vom - - bis: - -   Zeitraum: 23.04.2015 - 22.04.2020
Min/Max/Avg-Anzeige ... ?
Zeige MMA aktuell
Zeige MMA Monat
Zeige MMA alles
Zeige --A aktuell
Zeige --A Monat
Zeige --A alles
Keine MMA-Anzeige
MMA:
Keine MMA-Graphiken
MMA-Basis: 23.04.2015 - 22.04.2020
Quicknavigation für Darstellung... ?
Tage:      1T, 2T, 3T, 5T -1T -2T -3T -5T +1T +2T +3T +5T
Wochen: 1W, 2W, 3W -1W -2W -3W +1W +2W +3W
Monate: 1M, 3M, 6M -1M -3M -6M +1M +3M +6M
Jahre:    1J, 3J, 5J, 10J -1J -3J -5J -10J +1J +3J +5J +10J
Nutze für die Darstellung ... ?
Originaldaten oder ...
Mittelwerte Minima Maxima auf...
Stundenbasis Tagesbasis Wochenbasis
Monatsbasis Jahresbasis      Datenbasis: Mittelwerte auf Monatsbasis
Darstellen als:
Statistik (Auto) Statistik J:M      Darstellung:
Zur Graphik,    zurück zur Übersicht aller Sensoren.
 
Tabellarische Datenbersicht: ?
 
Sensor: Nr:Datum:Temp:Feuchte:
Aussen-T/F 1 01-04-2015 00:00:00 10.08708 C 59.7136 %
2 01-05-2015 00:00:00 14.11318 C 59.4517 %
3 01-06-2015 00:00:00 17.77401 C 57.5986 %
4 01-07-2015 00:00:00 21.15383 C 54.0739 %
5 01-08-2015 00:00:00 20.48263 C 57.5941 %
6 01-09-2015 00:00:00 13.55056 C 71.9281 %
7 01-10-2015 00:00:00 9.14548 C 77.6403 %
8 01-11-2015 00:00:00 8.4055 C 72.4775 %
9 01-12-2015 00:00:00 7.12153 C 75.5180 %
10 01-01-2016 00:00:00 3.22931 C 62.7026 %
11 01-02-2016 00:00:00 4.165 C 51.7853 %
12 01-03-2016 00:00:00 4.93561 C 44.1567 %
13 01-04-2016 00:00:00 9.16442 C 37.4539 %
14 01-05-2016 00:00:00 14.75924 C 32.6705 %
15 01-06-2016 00:00:00 17.65994 C 35.2127 %
16 01-07-2016 00:00:00 20.08911 C 27.5656 %
17 01-08-2016 00:00:00 18.87739 C 29.3073 %
18 01-09-2016 00:00:00 17.13061 C 31.7786 %
19 01-10-2016 00:00:00 9.08215 C 46.4757 %
20 01-11-2016 00:00:00 4.67064 C 43.4678 %
21 01-12-2016 00:00:00 2.26987 C 40.0435 %
22 01-01-2017 00:00:00 -2.19691 C 36.8838 %
23 01-02-2017 00:00:00 4.27015 C 34.4211 %
24 01-03-2017 00:00:00 8.54404 C 27.9731 %
25 01-04-2017 00:00:00 9.26135 C 23.3120 %
Sensor: Nr:Datum:Temp:Feuchte:
Aussen-T/F 26 01-05-2017 00:00:00 16.19457 C 28.5164 %
27 01-06-2017 00:00:00 20.55944 C 24.3547 %
28 01-07-2017 00:00:00 20.21728 C 28.4570 %
29 01-08-2017 00:00:00 18.4762 C 33.8467 %
30 01-09-2017 00:00:00 13.44522 C 37.8506 %
31 01-10-2017 00:00:00 11.48467 C 37.2266 %
32 01-11-2017 00:00:00 5.59933 C 40.9328 %
33 01-12-2017 00:00:00 3.75323 C 39.8739 %
34 01-01-2018 00:00:00 5.36848 C 35.8409 %
35 01-02-2018 00:00:00 -1.17859 C 29.8779 %
36 01-03-2018 00:00:00 4.23042 C 31.3690 %
37 01-04-2018 00:00:00 13.19128 C 26.5381 %
38 01-05-2018 00:00:00 16.64449 C 26.4492 %
39 01-06-2018 00:00:00 19.40525 C 25.3293 %
40 01-07-2018 00:00:00 21.89989 C 23.1748 %
41 01-08-2018 00:00:00 20.62868 C 24.0022 %
42 01-09-2018 00:00:00 14.91236 C 29.7514 %
43 01-10-2018 00:00:00 10.54107 C 38.6585 %
44 01-11-2018 00:00:00 5.88289 C 45.9744 %
45 01-12-2018 00:00:00 4.73686 C 44.0385 %
46 01-01-2019 00:00:00 1.5978 C 43.1454 %
47 01-02-2019 00:00:00 3.65451 C 41.1675 %
48 01-03-2019 00:00:00 7.39063 C 33.8869 %
49 01-04-2019 00:00:00 10.58247 C 31.7733 %
50 01-05-2019 00:00:00 12.38287 C 32.8107 %
Sensor: Nr:Datum:Temp:Feuchte:
Aussen-T/F 51 01-06-2019 00:00:00 20.835 C 27.2494 %
52 01-07-2019 00:00:00 20.44202 C 26.3419 %
53 01-08-2019 00:00:00 19.51613 C 32.8091 %
54 01-09-2019 00:00:00 14.94058 C 25.1143 %
55 01-10-2019 00:00:00 11.2634 C 29.4072 %
56 01-11-2019 00:00:00 5.33172 C 33.1655 %
57 01-12-2019 00:00:00 4.23291 C 34.9906 %
58 01-01-2020 00:00:00 4.55685 C 35.5768 %
59 01-02-2020 00:00:00 6.22909 C 34.4696 %
60 01-03-2020 00:00:00 7.24858 C 33.5169 %
61 01-04-2020 00:00:00 11.81667 C 28.8633 %
Sensor: Nr:Datum:Temp:Feuchte:
G-T/H 1 01-04-2015 00:00:00 11.09708 C 63.7294 %
2 01-05-2015 00:00:00 14.19547 C 64.8971 %
3 01-06-2015 00:00:00 16.67323 C 66.6111 %
4 01-07-2015 00:00:00 20.51939 C 61.6550 %
5 01-08-2015 00:00:00 19.86438 C 65.2401 %
6 01-09-2015 00:00:00 15.79436 C 69.1406 %
7 01-10-2015 00:00:00 12.40588 C 71.0373 %
8 01-11-2015 00:00:00 11.21225 C 72.9081 %
9 01-12-2015 00:00:00 10.13892 C 74.2796 %
10 01-01-2016 00:00:00 7.64302 C 71.8879 %
11 01-02-2016 00:00:00 8.09267 C 68.5325 %
12 01-03-2016 00:00:00 8.1825 C 67.9887 %
13 01-04-2016 00:00:00 11.07583 C 64.9083 %
14 01-05-2016 00:00:00 15.2761 C 62.5518 %
15 01-06-2016 00:00:00 17.90226 C 67.6934 %
16 01-07-2016 00:00:00 20.10003 C 64.9435 %
17 01-08-2016 00:00:00 19.4175 C 64.7397 %
18 01-09-2016 00:00:00 18.43172 C 64.2644 %
19 01-10-2016 00:00:00 12.94515 C 70.3911 %
20 01-11-2016 00:00:00 9.75253 C 69.0194 %
21 01-12-2016 00:00:00 7.34774 C 68.8665 %
22 01-01-2017 00:00:00 5.78588 C 66.0199 %
23 01-02-2017 00:00:00 7.70223 C 68.6768 %
24 01-03-2017 00:00:00 10.22215 C 64.2345 %
25 01-04-2017 00:00:00 11.20314 C 60.0922 %
Sensor: Nr:Datum:Temp:Feuchte:
G-T/H 26 01-05-2017 00:00:00 15.89327 C 61.3444 %
27 01-06-2017 00:00:00 20.01789 C 59.0992 %
28 01-07-2017 00:00:00 20.4489 C 61.9742 %
29 01-08-2017 00:00:00 19.67435 C 66.9043 %
30 01-09-2017 00:00:00 15.81583 C 70.5583 %
31 01-10-2017 00:00:00 13.97215 C 75.4439 %
32 01-11-2017 00:00:00 10.18211 C 71.1925 %
33 01-12-2017 00:00:00 8.65464 C 70.0728 %
34 01-01-2018 00:00:00 9.24124 C 71.4843 %
35 01-02-2018 00:00:00 6.11414 C 63.0604 %
36 01-03-2018 00:00:00 7.82191 C 65.7965 %
37 01-04-2018 00:00:00 13.46933 C 63.2619 %
38 01-05-2018 00:00:00 16.5825 C 62.9239 %
39 01-06-2018 00:00:00 19.57993 C 64.3928 %
40 01-07-2018 00:00:00 21.75846 C 57.3052 %
41 01-08-2018 00:00:00 21.21202 C 59.8933 %
42 01-09-2018 00:00:00 17.25044 C 62.6903 %
43 01-10-2018 00:00:00 13.17796 C 70.6921 %
44 01-11-2018 00:00:00 10.29853 C 71.7781 %
45 01-12-2018 00:00:00 9.24784 C 72.2692 %
46 01-01-2019 00:00:00 7.73167 C 71.6374 %
47 01-02-2019 00:00:00 7.52868 C 74.0125 %
48 01-03-2019 00:00:00 9.54697 C 68.6915 %
49 01-04-2019 00:00:00 12.43878 C 60.5053 %
50 01-05-2019 00:00:00 14.02705 C 62.4539 %
Sensor: Nr:Datum:Temp:Feuchte:
G-T/H 51 01-06-2019 00:00:00 20.29078 C 60.8711 %
52 01-07-2019 00:00:00 20.63543 C 57.0358 %
53 01-08-2019 00:00:00 20.06379 C 62.0594 %
54 01-09-2019 00:00:00 16.70926 C 62.8330 %
55 01-10-2019 00:00:00 14.34293 C 73.1018 %
56 01-11-2019 00:00:00 10.35029 C 72.2176 %
57 01-12-2019 00:00:00 9.18533 C 73.1608 %
58 01-01-2020 00:00:00 8.94989 C 73.4400 %
59 01-02-2020 00:00:00 9.65747 C 72.0675 %
60 01-03-2020 00:00:00 10.07904 C 68.2814 %
61 01-04-2020 00:00:00 11.99785 C 60.1761 %

Maximal/Minimal-Werte vom 23.04.2015 - 22.04.2020

Sensor Min Max Avg
Temp
(Aussen-T/F)
-18.7 °C
20-06-2016  11:38:17
46.2 °C
19-06-2017  18:30:17
11.15 °C
Feuchte
(Aussen-T/F)
20 %
23-04-2015  17:21:17
95 %
01-05-2015  02:34:17
38.44 %
Temp
(G-T/H)
-6 °C
01-12-2016  10:32:18
29.7 °C
26-07-2018  16:25:17
13.47 °C
Feuchte
(G-T/H)
25 %
29-06-2019  18:04:17
85 %
16-10-2017  15:03:17
66.86 %

Die Daten stammen von einer Davis Vantage Pro 2 Wetter-Station und werden unter Linux mit der Software wview2wettercgi und aufbereitet. Alle Angaben erfolgen ohne Gewähr für ihre Vollständigkeit oder Richtigkeit.
Kontakt: Rainer Krienke krienke@uni-koblenz.de . Meine Webseiten an der Uni Koblenz oder privat.
Version: $Revision: 0.78 $